sat.trackr.live / text

‹ back to catalog

STARLINK-11555 [DTC]

NORAD 62915 · 2025-027J

PAYLOAD ACTIVE UNKNOWN

§ Identity

Operator
Country
US
Launch date
2025-02-08
Launch site
AFETR
Launch vehicle
Mass (kg)
RCS (m²)

Purposes: comms

External: N2YO · Heavens-Above · Gunter

§ Orbital elements

Epoch: 2026-09-21T08:44:27.304224Z

Period
91.67 min
Inclination
42.9993°
Eccentricity
0.0002942
Mean motion
15.70920520 rev/d
Perigee alt
354.3 km
Apogee alt
358.2 km
Semi-major
6,734.4 km
B*
5.8078e-4
RAAN
248.4704°
Arg perigee
259.8710°
Mean anomaly
100.1826°
Rev number
9,396

§ Raw data

STARLINK-11555 [DTC]1 62915U 25027J   26264.36420491  .00075013  00000+0  58078-3 0  99942 62915  42.9993 248.4704 0002942 259.8710 100.1826 15.70920520 93965

JSON: /api/v1/satellites/62915 · /tle

For live sub-satellite position, see the globe view (requires WebGL).

§ Visibility from observer

Set your observer location to see the next 7 days of passes ≥ 10°. The values pass through the URL so the page stays shareable.

No JS? Fill the form by hand. The geolocation button needs JavaScript.